{"data":{"norad_id":57532,"epoch":"2026-09-20T22:19:27.672096Z","epoch_age_seconds":90443,"freshness":"FRESH","line1":"1 57532U 23115M   26263.93018139  .00000466  00000+0  26465-4 0  9999","line2":"2 57532  43.0039 338.7452 0001312 276.7943  83.2760 15.27576753172217","mean_motion":15.27576753,"eccentricity":0.0001312,"inclination_deg":43.0039,"raan_deg":338.7452,"arg_perigee_deg":276.7943,"mean_anomaly_deg":83.276,"bstar":2.6465e-5,"rev_number":17221,"period_min":94.266949085995,"perigee_km":482.15862985156,"apogee_km":483.9590076344,"semimajor_km":6861.195818743,"source":"CELESTRAK","updated_at":"2026-09-21T09:00:33.639089Z"}}